Tiempo cada hora Abapo

Hoy, 22 Octubre, Jueves

Tiempo Temperatura Precipitaciones Viento Presión Humedad
00:00 +23°C° 0.3 mm 1 mps 711 mmHg 82%
01:00 +23°C° 0.3 mm 1 mps 711 mmHg 84%
02:00 +23°C° 0.3 mm 1 mps 710 mmHg 86%
03:00 +20°C° 0 mm 0 mps 710 mmHg 87%
04:00 +20°C° 0 mm 0 mps 710 mmHg 88%
05:00 +20°C° 0 mm 0 mps 710 mmHg 89%
06:00 +23°C° 0 mm 0 mps 711 mmHg 77%
07:00 +26°C° 0 mm 0 mps 712 mmHg 66%
08:00 +29°C° 0 mm 0 mps 713 mmHg 55%
09:00 +32°C° 0.2 mm 1 mps 712 mmHg 50%
10:00 +35°C° 0.2 mm 2 mps 712 mmHg 45%
11:00 +36°C° 0.2 mm 3 mps 712 mmHg 40%
12:00 +36°C° 0.3 mm 3 mps 711 mmHg 39%
13:00 +36°C° 0.3 mm 3 mps 710 mmHg 39%
14:00 +36°C° 0.3 mm 4 mps 709 mmHg 38%
15:00 +36°C° 0.1 mm 3 mps 709 mmHg 39%
16:00 +35°C° 0.1 mm 3 mps 709 mmHg 40%
17:00 +35°C° 0.1 mm 3 mps 708 mmHg 41%
18:00 +32°C° 0.1 mm 2 mps 709 mmHg 48%
19:00 +30°C° 0.1 mm 2 mps 709 mmHg 55%
20:00 +28°C° 0.1 mm 1 mps 709 mmHg 61%
21:00 +28°C° 0 mm 1 mps 709 mmHg 65%
22:00 +27°C° 0 mm 1 mps 710 mmHg 68%
23:00 +26°C° 0 mm 1 mps 710 mmHg 72%

Mañana, 23 Octubre, Viernes

Tiempo Temperatura Precipitaciones Viento Presión Humedad
00:00 +26°C° 0.3 mm 1 mps 710 mmHg 74%
01:00 +26°C° 0.3 mm 1 mps 709 mmHg 77%
02:00 +25°C° 0.3 mm 1 mps 709 mmHg 79%
03:00 +25°C° 0.1 mm 1 mps 709 mmHg 82%
04:00 +24°C° 0.1 mm 1 mps 709 mmHg 85%
05:00 +22°C° 0.1 mm 0 mps 709 mmHg 88%
06:00 +24°C° 0 mm 0 mps 709 mmHg 79%
07:00 +26°C° 0 mm 0 mps 710 mmHg 70%
08:00 +28°C° 0 mm 0 mps 710 mmHg 61%
09:00 +33°C° 0 mm 1 mps 710 mmHg 51%
10:00 +36°C° 0 mm 1 mps 711 mmHg 42%
11:00 +40°C° 0 mm 1 mps 711 mmHg 32%
12:00 +40°C° 0.1 mm 2 mps 709 mmHg 33%
13:00 +39°C° 0.1 mm 3 mps 708 mmHg 35%
14:00 +38°C° 0.1 mm 3 mps 707 mmHg 36%
15:00 +38°C° 0 mm 3 mps 707 mmHg 36%
16:00 +37°C° 0 mm 3 mps 707 mmHg 36%
17:00 +37°C° 0 mm 3 mps 706 mmHg 36%
18:00 +35°C° 0 mm 3 mps 707 mmHg 43%
19:00 +32°C° 0 mm 2 mps 707 mmHg 50%
20:00 +29°C° 0 mm 1 mps 707 mmHg 56%
21:00 +29°C° 0 mm 1 mps 707 mmHg 59%
22:00 +28°C° 0 mm 1 mps 707 mmHg 63%
23:00 +27°C° 0 mm 1 mps 707 mmHg 66%

Pasado mañana, 24 Octubre, Sábado

Tiempo Temperatura Precipitaciones Viento Presión Humedad
00:00 +26°C° 0 mm 1 mps 707 mmHg 68%
01:00 +26°C° 0 mm 1 mps 707 mmHg 70%
02:00 +25°C° 0 mm 1 mps 707 mmHg 72%
03:00 +25°C° 0 mm 1 mps 707 mmHg 74%
04:00 +25°C° 0 mm 1 mps 707 mmHg 77%
05:00 +24°C° 0 mm 1 mps 707 mmHg 80%
06:00 +27°C° 0 mm 1 mps 708 mmHg 70%
07:00 +28°C° 0 mm 0 mps 708 mmHg 61%
08:00 +30°C° 0 mm 0 mps 709 mmHg 51%
09:00 +35°C° 0 mm 1 mps 709 mmHg 45%
10:00 +38°C° 0 mm 2 mps 709 mmHg 39%
11:00 +40°C° 0 mm 2 mps 709 mmHg 32%
12:00 +40°C° 0 mm 2 mps 708 mmHg 31%
13:00 +41°C° 0 mm 2 mps 707 mmHg 30%
14:00 +41°C° 0 mm 2 mps 706 mmHg 29%
15:00 +42°C° 0 mm 3 mps 706 mmHg 30%
16:00 +40°C° 0 mm 3 mps 705 mmHg 31%
17:00 +40°C° 0 mm 3 mps 705 mmHg 31%
18:00 +37°C° 0 mm 3 mps 705 mmHg 37%
19:00 +35°C° 0 mm 2 mps 705 mmHg 43%
20:00 +32°C° 0 mm 2 mps 706 mmHg 49%
21:00 +31°C° 0 mm 2 mps 705 mmHg 53%
22:00 +30°C° 0 mm 1 mps 705 mmHg 56%
23:00 +29°C° 0 mm 1 mps 705 mmHg 59%

, 25 Octubre, Domingo

Tiempo Temperatura Precipitaciones Viento Presión Humedad
00:00 +28°C° 0 mm 1 mps 705 mmHg 62%
01:00 +27°C° 0 mm 1 mps 704 mmHg 65%
02:00 +26°C° 0 mm 1 mps 704 mmHg 67%
03:00 +24°C° 0 mm 0 mps 704 mmHg 69%
04:00 +24°C° 0 mm 0 mps 704 mmHg 70%
05:00 +23°C° 0 mm 0 mps 704 mmHg 71%
06:00 +28°C° 0 mm 1 mps 704 mmHg 62%
07:00 +31°C° 0 mm 1 mps 705 mmHg 53%
08:00 +34°C° 0 mm 1 mps 706 mmHg 44%
09:00 +37°C° 0 mm 2 mps 705 mmHg 38%
10:00 +40°C° 0 mm 3 mps 705 mmHg 32%
11:00 +44°C° 0 mm 3 mps 705 mmHg 26%
12:00 +44°C° 0 mm 4 mps 704 mmHg 25%
13:00 +46°C° 0 mm 5 mps 703 mmHg 23%
14:00 +47°C° 0 mm 6 mps 703 mmHg 22%
15:00 +45°C° 0 mm 6 mps 702 mmHg 25%
16:00 +44°C° 0 mm 6 mps 702 mmHg 27%
17:00 +41°C° 0 mm 7 mps 701 mmHg 30%
18:00 +39°C° 0 mm 5 mps 702 mmHg 36%
19:00 +35°C° 0 mm 4 mps 703 mmHg 42%
20:00 +33°C° 0 mm 3 mps 703 mmHg 48%
21:00 +31°C° 0 mm 2 mps 703 mmHg 51%
22:00 +30°C° 0 mm 2 mps 703 mmHg 54%
23:00 +29°C° 0 mm 1 mps 703 mmHg 58%

25 Octubre, Domingo

Tiempo Temperatura Precipitaciones Viento Presión Humedad
00:00 +28°C° 0 mm 1 mps 705 mmHg 62%
01:00 +27°C° 0 mm 1 mps 704 mmHg 65%
02:00 +26°C° 0 mm 1 mps 704 mmHg 67%
03:00 +24°C° 0 mm 0 mps 704 mmHg 69%
04:00 +24°C° 0 mm 0 mps 704 mmHg 70%
05:00 +23°C° 0 mm 0 mps 704 mmHg 71%
06:00 +28°C° 0 mm 1 mps 704 mmHg 62%
07:00 +31°C° 0 mm 1 mps 705 mmHg 53%
08:00 +34°C° 0 mm 1 mps 706 mmHg 44%
09:00 +37°C° 0 mm 2 mps 705 mmHg 38%
10:00 +40°C° 0 mm 3 mps 705 mmHg 32%
11:00 +44°C° 0 mm 3 mps 705 mmHg 26%
12:00 +44°C° 0 mm 4 mps 704 mmHg 25%
13:00 +46°C° 0 mm 5 mps 703 mmHg 23%
14:00 +47°C° 0 mm 6 mps 703 mmHg 22%
15:00 +45°C° 0 mm 6 mps 702 mmHg 25%
16:00 +44°C° 0 mm 6 mps 702 mmHg 27%
17:00 +41°C° 0 mm 7 mps 701 mmHg 30%
18:00 +39°C° 0 mm 5 mps 702 mmHg 36%
19:00 +35°C° 0 mm 4 mps 703 mmHg 42%
20:00 +33°C° 0 mm 3 mps 703 mmHg 48%
21:00 +31°C° 0 mm 2 mps 703 mmHg 51%
22:00 +30°C° 0 mm 2 mps 703 mmHg 54%
23:00 +29°C° 0 mm 1 mps 703 mmHg 58%

26 Octubre, Lunes

Tiempo Temperatura Precipitaciones Viento Presión Humedad
00:00 +28°C° 0 mm 1 mps 703 mmHg 60%
01:00 +27°C° 0 mm 1 mps 702 mmHg 63%
02:00 +27°C° 0 mm 1 mps 702 mmHg 66%
03:00 +26°C° 0.3 mm 1 mps 703 mmHg 71%
04:00 +26°C° 0.3 mm 2 mps 704 mmHg 75%
05:00 +25°C° 0.3 mm 3 mps 705 mmHg 79%
06:00 +26°C° 0.4 mm 2 mps 706 mmHg 79%
07:00 +26°C° 0.4 mm 2 mps 708 mmHg 78%
08:00 +27°C° 0.4 mm 2 mps 709 mmHg 78%
09:00 +27°C° 0.6 mm 2 mps 710 mmHg 77%
10:00 +26°C° 0.6 mm 3 mps 710 mmHg 76%
11:00 +26°C° 0.6 mm 3 mps 711 mmHg 75%
12:00 +27°C° 0.2 mm 3 mps 711 mmHg 69%
13:00 +28°C° 0.2 mm 3 mps 711 mmHg 62%
14:00 +29°C° 0.2 mm 3 mps 711 mmHg 56%
15:00 +29°C° 0 mm 3 mps 710 mmHg 54%
16:00 +29°C° 0 mm 2 mps 710 mmHg 52%
17:00 +29°C° 0 mm 2 mps 709 mmHg 50%
18:00 +28°C° 0 mm 1 mps 710 mmHg 55%
19:00 +27°C° 0 mm 1 mps 710 mmHg 59%
20:00 +25°C° 0 mm 1 mps 710 mmHg 63%
21:00 +25°C° 0 mm 1 mps 710 mmHg 62%
22:00 +25°C° 0 mm 1 mps 711 mmHg 61%
23:00 +25°C° 0 mm 1 mps 711 mmHg 60%

27 Octubre, Martes

Tiempo Temperatura Precipitaciones Viento Presión Humedad
00:00 +25°C° 0 mm 1 mps 710 mmHg 59%
01:00 +24°C° 0 mm 1 mps 710 mmHg 58%
02:00 +24°C° 0 mm 1 mps 709 mmHg 57%
03:00 +24°C° 0 mm 1 mps 709 mmHg 59%
04:00 +23°C° 0 mm 1 mps 709 mmHg 61%
05:00 +22°C° 0 mm 1 mps 709 mmHg 63%
06:00 +24°C° 0 mm 1 mps 709 mmHg 55%
07:00 +27°C° 0 mm 1 mps 710 mmHg 47%
08:00 +29°C° 0 mm 1 mps 710 mmHg 39%
09:00 +31°C° 0 mm 1 mps 710 mmHg 34%
10:00 +34°C° 0 mm 2 mps 710 mmHg 30%
11:00 +36°C° 0 mm 2 mps 709 mmHg 25%
12:00 +37°C° 0 mm 2 mps 708 mmHg 24%
13:00 +37°C° 0 mm 3 mps 707 mmHg 24%
14:00 +37°C° 0 mm 4 mps 707 mmHg 24%
15:00 +36°C° 0 mm 4 mps 706 mmHg 26%
16:00 +35°C° 0 mm 4 mps 706 mmHg 28%
17:00 +34°C° 0 mm 4 mps 705 mmHg 30%
18:00 +31°C° 0 mm 3 mps 705 mmHg 38%
19:00 +28°C° 0 mm 2 mps 705 mmHg 46%
20:00 +26°C° 0 mm 1 mps 705 mmHg 54%
21:00 +25°C° 0 mm 1 mps 705 mmHg 58%
22:00 +24°C° 0 mm 1 mps 705 mmHg 63%
23:00 +21°C° 0 mm 0 mps 705 mmHg 68%
Mostrar más

Necesitamos Su Consentimiento

Meteoprog y nuestros Proveedores de Servicios pueden almacenar y acceder a sus datos personales como cookies, identificadores de dispositivo u otras tecnologías similares de su dispositivo y procesar dichos datos para personalizar contenido y anuncios, además de ofrecer funciones de redes sociales y analizar el tráfico.

  • Almacenar y/o acceder a información en su dispositivo

    Se puede almacenar o acceder a cookies, identificadores de dispositivo u otra información de su dispositivo para los fines anteriormente indicados.

  • Anuncios y contenido personalizados, medición de anuncios y contenido, percepciones del público, y desarrollo de productos

    Los anuncios y el contenido pueden personalizarse en base a su perfil. Se pueden añadir más datos para personalizar mejor los anuncios y contenidos. Se puede medir el rendimiento de los anuncios y contenidos. Se puede obtener la percepción sobre el público que ha visto los anuncios y contenidos. Dichos datos pueden usarse para desarrollar o mejorar la experiencia del usuario, sistemas y software.

Al hacer clic en ‘Estoy De Acuerdo’ usted permitirá el uso de las cookies, identificadores de dispositivo, balizas web u otras tecnologías similares indicadas. Su configuración puede cambiarse desde el navegador de su dispositivo.

Para ciertos fines, los intereses legítimos pueden ser considerados por encima del consentimiento. Puede leer más sobre ello en nuestra Política de Privacidad y Cookies.